SL-14 DEB, 45339

Orbit data source: Space-Track

SL-14 DEB, 45339 is space debris in LEO originally from a launch on Thu, 15 Aug 1991 UTC launched from the Plesetsk Missile And Space Complex (PKMTR). Debris objects in space refer to the collection of defunct objects orbiting the Earth. Examples of debris include non-operational satellites, rocket bodies, and fragments generated from explosions, collisions, or faulty payload assembly.

Loading next visibility...
Identifier
45339, 1991-056CD
Orbit
LEO
Country
Flag of CISCIS
Related business
Manufacturer
Unknown
Mission
Spacecraft
Bus & Motor
Unknown
Mass
Unknown
Launch date (UTC)
1991-08-15 (34 years ago)
Launch vehicle
Unknown
Launch site
Plesetsk Missile And Space Complex (PKMTR)
Object type
Payload
Rocket body
Debris
Shape & HBR
Unknown
Radar Cross Section
Small (<0.1 m²)

Expand to show TLE details & history
Last TLE update: 1 day ago

TLE from 1 day ago
0 SL-14 DEB
1 45339U 91056CD  25257.95946810  .00007324  00000-0  76623-2 0  9990
2 45339  82.5092 232.8787 0123031  60.2115 301.1207 13.71730837273280
Epoch: 2025-09-14T23:01Z
TLE epoch observation values (Epoch: 2025-09-14T23:01:38.043Z)
Latitude
-0.00001°
Longitude
-106.70081°
Altitude
950.19 km
Speed
7.4 km/s
True Right ascension
15h 31m 30s
True Declination
0° 00' 00"
Sunlit
Object was in daylight at epoch
Visualization orbit readout
Latitude
Unknown
Longitude
Unknown
Altitude
Unknown
Speed
Unknown
Apparent Right ascension
Unknown
Apparent Declination
Unknown
Sunlit
N/A
Visualization observer readout
Local Sidereal Time
21:33:29
Azimuth
Unknown
Elevation
Unknown
Doppler factor
Unknown
Orbital elements
Apogee altitude
1,081.191 km
Perigee altitude
899.876 km
Semi-major axis
7,368.67 km
Eccentricity
0.0123
Inclination
82.5092°
RAAN
232.8787°
Arg. of periapsis
60.2115°
True anomaly
299.9042°
Mean anomaly
301.1207°
Eccentric anomaly
300.51341°
Mean motion
3.43131 °/min
Orbital period
104.92 mins
BSTAR
0.0076623
Loading maneuver chart data...
Computing Atmospheric mass density...
Loading historical data...
Loading historical data...
Loading historical data...
Loading historical data...
Loading historical data...
Loading historical data...
Loading historical data...

Documentation

Showing up to 5 results
|